Volver al catálogo

GNOMES-4

ActivoMeteoSSO
NORAD 58462·PAYLOAD·🇺🇸 United States

Lanzado Dec 1, 2023 desde Vandenberg Space Force Base

Loading…

Próximos Pases (próximas 24 horas)

TLE

ActualizadoSource: Space-Track

Época: Sep 14, 2026, 14:41 UTC

1 58462U 23185A   26257.61227518  .00002408  00000-0  19158-3 0  9999
2 58462  97.4735 311.4658 0011411  28.6783 331.5067 15.01269977152709

Sigue GNOMES-4 en tiempo real con AllMySat

Download on the App Store